Location: Newark
(33.6333°S, 78.8500°W)
Time: 06:21:57
(UTC+00:00)

Tiros 1 despin weight - Pass Details

Date: 24 September 2019
Orbit: 594 x 643 km, 48.2° (Epoch: 16 October)

Event Time Altitude Azimuth Distance (km) Brightness Sun altitude
Rises 04:21:26 0° 285° (WNW) 2,861 - -54.3°
Reaches altitude 10° 04:23:52 10° 276° (W) 1,970 - -54.5°
Maximum altitude 04:28:01 35° 209° (SSW) 1,011 - -54.8°
Drops below altitude 10° 04:32:17 10° 143° (SE) 2,013 - -55.0°
Sets 04:34:48 0° 133° (SE) 2,933 - -55.2°
